Location: *
(49.6619°S, 177.4603°W)
Time: 05:46:25
(UTC+00:00)

Resurs 1-4 Rocket - Pass Details

Date: 31 January 2023
Orbit: 800 x 813 km, 98.7° (Epoch: 01 April)

Event Time Altitude Azimuth Distance (km) Brightness Sun altitude
Exits shadow 10:39:31 - 87° (E) 2,502 4.4 -20.4°
Reaches altitude 10° 10:39:50 10° 90° (E) 2,427 4.4 -20.5°
Maximum altitude 10:43:04 17° 127° (SE) 2,011 4.3 -20.6°
Drops below altitude 10° 10:46:20 10° 164° (SSE) 2,442 5.4 -20.8°
Sets 10:49:31 0° 184° (S) 3,381 6.7 -21.0°
